STARLINK-36310, 68244

Orbit data source: Space-Track

STARLINK-36310, 68244 is a payload satellite owned by SpaceX/Seattle (US) in LEO that was launched on Tue, 17 Mar 2026 UTC via an FALCON 9 launch vehicle from the Air Force Eastern Test Range (AFETR). Payload-class satellites include a variety of spacecraft equipped with specific instruments for various scientific and technological missions. These include communications satellites like Starlink; space stations such as the ISS; scientific satellites like the Hubble; Earth observation satellites from companies like Planet Labs, Umbra, and HawkEye 360; GPS; miniature CubeSats for education and research; and military/defense satellites.

Loading next visibility...
Identifier
68244, 2026-054N
Orbit
LEO
Country
Flag of USUS
Related business
Manufacturer
SpaceX/Seattle
Mission
Operational spacecraft
Bus & Motor
STARLINK V2MO, Unknown motor
Mass
575 kg wet, ~530 kg dry
Launch date (UTC)
2026-03-17 (2 months ago)
Launch vehicle
FALCON 9
Launch site
Air Force Eastern Test Range (AFETR)
Object type
Payload
Rocket body
Debris
Shape & HBR
Unknown shape, 17.7 m
Radar Cross Section
RCS unknown

Expand to show TLE details & history
Last TLE update: 8 hours ago

TLE from 8 hours ago
0 STARLINK-36310
1 68244U 26054N   26145.40604986  .00051471  00000-0  11827-2 0  9995
2 68244  53.1594 297.9790 0000939 121.3041 238.8057 15.42200561 10773
Epoch: 2026-05-25T09:44Z
TLE epoch observation values (Epoch: 2026-05-25T09:44:42.707Z)
Latitude
-0.00004°
Longitude
-91.19328°
Altitude
440.852 km
Speed
7.648 km/s
True Right ascension
19h 51m 54s
True Declination
0° 00' 00"
Sunlit
Object was in full shadow at epoch
Visualization orbit readout
Latitude
Unknown
Longitude
Unknown
Altitude
Unknown
Speed
Unknown
Apparent Right ascension
Unknown
Apparent Declination
Unknown
Sunlit
N/A
Visualization observer readout
Local Sidereal Time
03:03:48
Azimuth
Unknown
Elevation
Unknown
Doppler factor
Unknown
Orbital elements
Apogee altitude
440.514 km
Perigee altitude
439.234 km
Semi-major axis
6,818.011 km
Eccentricity
0.00009
Inclination
53.1594°
RAAN
297.979°
Arg. of periapsis
121.3041°
True anomaly
238.7965°
Mean anomaly
238.8057°
Eccentric anomaly
238.8011°
Mean motion
3.85529 °/min
Orbital period
93.38 mins
BSTAR
0.0011827
Loading maneuver chart data...
Computing Atmospheric mass density...
Loading historical data...
Loading historical data...
Loading historical data...
Loading historical data...
Loading historical data...
Loading historical data...
Loading historical data...

Documentation

Showing up to 5 results
|